User: anonymous   Login
Location: Unspecified
(0.0000°N, 0.0000°E)
Time: 03:01:40
(UTC+00:00)
Language:

STARLINK-1133 - Orbit

View from above orbital plane
View from above orbital plane
View from above satellite
View from above satellite

Ground track
Ground track

The orbit is defined by the following mean orbital elements,

1 45064U          26145.28834235 +.00000000 +00000-0 +12771-2 0 00005
2 45064  53.1551 261.3881 0003168 324.8725  35.2068 15.33738024    09
Epoch (UTC): 25 May 2026 06:55:12
Eccentricity: 0.0003168
inclination: 53.1551°
perigee height: 463 km
apogee height: 467 km
right ascension of ascending node: 261.3881°
argument of perigee: 324.8725°
revolutions per day: 15.33738024
mean anomaly at epoch: 35.2068°

The dashed part of the orbit path shows where the satellite is in the earth's shadow,  

DLR